User: anonymous   Login
Location: Unspecified
(0.0000°N, 0.0000°E)
Time: 04:19:24
(UTC+01:00)
Language:

Meteor 2-8 Rocket - Orbit

View from above orbital plane
View from above orbital plane
View from above satellite
View from above satellite

Ground track
Ground track

The orbit data is extracted from the following two-line orbital elements,

1 13114U 82025B   14304.00042823  .00000016  00000-0  80013-6 0  5449
2 13114 082.5409 246.7701 0013618 331.6230 081.7591 13.84631843647531
Epoch (UTC): 31 October 2014 00:00:36
Eccentricity: 0.0013618
inclination: 82.5409°
perigee height: 937 km
apogee height: 957 km
right ascension of ascending node: 246.7701°
argument of perigee: 331.6230°
revolutions per day: 13.84631843
mean anomaly at epoch: 81.7591°
orbit number at epoch: 64753

The dashed part of the orbit path shows where the satellite is in the earth's shadow,  

DLR